Back to catalog

STARLINK-36806

AliveCommunicationsSSO
NORAD 67965·PAYLOAD·🇺🇸 United States

Launched Feb 25, 2026 from Vandenberg Space Force Base

Loading…

Next Passes (next 24 hours)

TLE

FreshSource: CelesTrak SupGP

Epoch: Sep 14, 2026, 14:49 UTC

1 67965C 26038E   26257.61784722 -.00049551  00000+0 -15379-2 0  2570
2 67965  97.2847 266.0011 0001585  96.6126 105.7481 15.33469515    16

Track STARLINK-36806 in real time with AllMySat

Download on the App Store